COSMOS 1275 DEB, 12773

Orbit data source: Space-Track

COSMOS 1275 DEB, 12773 is space debris in LEO originally from a launch on Thu, 04 Jun 1981 UTC launched from the Plesetsk Missile And Space Complex (PKMTR). Debris objects in space refer to the collection of defunct objects orbiting the Earth. Examples of debris include non-operational satellites, rocket bodies, and fragments generated from explosions, collisions, or faulty payload assembly.

Loading next visibility...
Identifier
12773, 1981-053DS
Orbit
LEO
Country
Flag of CISCIS
Related business
Manufacturer
Unknown
Mission
Spacecraft
Bus & Motor
Unknown
Mass
Unknown
Launch date (UTC)
1981-06-04 (45 years ago)
Launch vehicle
Unknown
Launch site
Plesetsk Missile And Space Complex (PKMTR)
Object type
Payload
Rocket body
Debris
Shape & HBR
Unknown shape, 0.1 m
Radar Cross Section
Small (<0.1 m²)

Expand to show TLE details & history
Last TLE update: 9 hours ago

TLE from 9 hours ago
0 COSMOS 1275 DEB
1 12773U 81053DS  26034.49682097  .00019658  00000-0  32851-2 0  9997
2 12773  82.9191  62.8045 0080836 291.9042  67.3585 14.67612441257328
Epoch: 2026-02-03T11:55Z
TLE epoch observation values (Epoch: 2026-02-03T11:55:25.331Z)
Latitude
-0.00003°
Longitude
110.27204°
Altitude
650.189 km
Speed
7.544 km/s
True Right ascension
04h 11m 13s
True Declination
0° 00' 00"
Sunlit
Object was in daylight at epoch
Visualization orbit readout
Latitude
Unknown
Longitude
Unknown
Altitude
Unknown
Speed
Unknown
Apparent Right ascension
Unknown
Apparent Declination
Unknown
Sunlit
N/A
Visualization observer readout
Local Sidereal Time
22:37:03
Azimuth
Unknown
Elevation
Unknown
Doppler factor
Unknown
Orbital elements
Apogee altitude
722.663 km
Perigee altitude
608.783 km
Semi-major axis
7,043.86 km
Eccentricity
0.00808
Inclination
82.9191°
RAAN
62.8045°
Arg. of periapsis
291.9042°
True anomaly
68.21673°
Mean anomaly
67.3585°
Eccentric anomaly
67.78728°
Mean motion
3.67136 °/min
Orbital period
98.06 mins
BSTAR
0.0032851
Loading maneuver chart data...
Computing Atmospheric mass density...

Documentation

Showing up to 5 results
|